Location: Écuvilly
(49.6505°N, 2.9206°E)
Time: 05:51:16
(UTC+00:00)

Iridium 4 Rocket - Pass Details

Date: 17 November 2025
Orbit: 579 x 887 km, 86.9° (Epoch: 16 December)

Event Time Altitude Azimuth Distance (km) Brightness Sun altitude
Rises 16:59:10 0° 196° (SSW) 3,239 7.3 -9.2°
Reaches altitude 10° 17:01:40 10° 202° (SSW) 2,267 6.5 -9.5°
Maximum altitude 17:06:32 49° 277° (W) 908 4.4 -10.3°
Drops below altitude 10° 17:11:02 10° 353° (N) 2,093 5.7 -11.0°
Sets 17:13:16 0° 359° (N) 2,966 6.4 -11.3°
